This is the latest recevied weather packets stored in our database for station/object DL1NER. If no packets are shown the sender has not sent any weather packets the latest 10 day(s).
| Time | Temp. | Humidity | Pressure | Rain* | Wind** | Luminosity | Snow |
|---|---|---|---|---|---|---|---|
| 1777633212 | 20.56° C | 33% | 1028.3 hPa | 0 mm | - | 0 W/m² | - |
| 1777632612 | 20° C | 35% | 1028.3 hPa | 0 mm | - | 0 W/m² | - |
| 1777632012 | 19.44° C | 31% | 1028.5 hPa | 0 mm | - | 0 W/m² | - |
| 1777631412 | 19.44° C | 32% | 1028.5 hPa | 0 mm | - | 0 W/m² | - |
| 1777630812 | 19.44° C | 35% | 1028.7 hPa | 0 mm | - | 0 W/m² | - |
| 1777630212 | 19.44° C | 34% | 1028.7 hPa | 0 mm | - | 0 W/m² | - |
| 1777629612 | 19.44° C | 38% | 1028.8 hPa | 0 mm | - | 0 W/m² | - |
| 1777629012 | 19.44° C | 33% | 1028.9 hPa | 0 mm | - | 0 W/m² | - |
| 1777628412 | 18.89° C | 34% | 1028.8 hPa | 0 mm | - | 0 W/m² | - |
| 1777627811 | 18.33° C | 36% | 1028.9 hPa | 0 mm | - | 0 W/m² | - |
| 1777627212 | 18.33° C | 38% | 1029 hPa | 0 mm | - | 0 W/m² | - |
| 1777626612 | 17.78° C | 36% | 1029 hPa | 0 mm | - | 0 W/m² | - |
| 1777626012 | 17.22° C | 39% | 1029 hPa | 0 mm | - | 0 W/m² | - |
| 1777625412 | 17.22° C | 36% | 1029 hPa | 0 mm | - | 0 W/m² | - |
| 1777624811 | 16.67° C | 38% | 1029 hPa | 0 mm | - | 0 W/m² | - |
| 1777624212 | 16.67° C | 38% | 1029.1 hPa | 0 mm | - | 0 W/m² | - |
| 1777623611 | 16.11° C | 39% | 1029.1 hPa | 0 mm | - | 0 W/m² | - |
| 1777623012 | 15.56° C | 39% | 1029.2 hPa | 0 mm | - | 0 W/m² | - |
| 1777622412 | 15.56° C | 38% | 1029.2 hPa | 0 mm | - | 0 W/m² | - |
| 1777621811 | 15° C | 41% | 1029.2 hPa | 0 mm | - | 0 W/m² | - |
| 1777621211 | 14.44° C | 43% | 1029.2 hPa | 0 mm | - | 0 W/m² | - |
| 1777620611 | 13.33° C | 42% | 1029.3 hPa | 0 mm | - | 0 W/m² | - |
| 1777620011 | 12.22° C | 45% | 1029.4 hPa | 0 mm | - | 0 W/m² | - |
| 1777619411 | 11.11° C | 46% | 1029.4 hPa | 0 mm | - | 0 W/m² | - |
| 1777618811 | 10.56° C | 50% | 1029.4 hPa | 0 mm | - | 0 W/m² | - |
* Rain latest hour (hover to see other rain measurements)
** Current wind speed in m/s (hover to see current wind gust speed)